Home   Weather   Norrköping   Past weeks

Flag for Sweden Past Weather in Norrköping, Sweden — Yesterday and Last 2 Weeks

Now
37 °F

Drizzle. Low clouds.


Feels Like: 31 °F
Forecast: 29 / 37 °F
Wind: 9 mph from East

Location: Norrkoping Airport

Current Time: Dec 10, 2016 at 10:15:40 am

Latest Report: Dec 10, 2016 at 9:20 am


Visibility: N/A

Pressure: 29.74 "Hg

Humidity: 100%

Dew Point: 37 °F

Location of NorrköpingLocation

Past Weather in Norrköping — Graph

°F

Norrköping Temperature Yesterday

Maximum temperature yesterday: 48 °F (at 12:50 pm)
Minimum temperature yesterday: 34 °F (at 9:50 pm)
Average temperature yesterday: 43 °F

High & Low Weather Summary for the Past Weeks

 TemperatureHumidityPressure
High52 °F (Dec 8, 12:20 pm)100% (Nov 25, 8:20 am)30.45 "Hg (Nov 25, 8:20 am)
Low16 °F (Dec 3, 8:50 pm)41% (Nov 27, 1:50 pm)29.45 "Hg (Nov 26, 1:50 pm)
Average34 °F82%29.91 "Hg
* Reported Nov 25 8:20 am — Dec 10 8:50 am, Norrköping, Weather by CustomWeather, © 2016

Note: Actual official high and low records may vary slightly from our data, if they occured in-between our weather recording intervals... More about our weather records

Advertising

Norrköping Weather History for the Previous 24 Hours

Scroll right to see more
 ConditionsComfort  
Time TempWeatherWind HumidityBarometerVisibility
8:50 am
Sat, Dec 10
37 °FLight rain. Low clouds.8 mph100%29.74 "HgN/A
8:20 am37 °FDrizzle. Low clouds.8 mph100%29.74 "HgN/A
7:50 am37 °FDrizzle. Low clouds.5 mph100%29.74 "HgN/A
7:20 am36 °FLight rain. Passing clouds.6 mph100%29.74 "HgN/A
6:50 am36 °FLight rain. Partly cloudy.3 mph100%29.74 "HgN/A
6:20 am36 °FLight rain. Partly cloudy.3 mph100%29.74 "HgN/A
5:50 am36 °FLight rain. Passing clouds.5 mph100%29.74 "HgN/A
5:20 am36 °FLight rain. Partly cloudy.5 mph100%29.74 "HgN/A
4:50 am37 °FLight rain. Overcast.3 mph100%29.77 "Hg6 mi
4:20 am36 °FDrizzle. Overcast.5 mph100%29.77 "Hg4 mi
3:50 am36 °FLight rain. Partly cloudy.5 mph100%29.77 "Hg4 mi
3:20 am34 °FPassing clouds.5 mph100%29.77 "HgN/A
2:50 am36 °FPassing clouds.1 mph100%29.80 "HgN/A
2:20 am36 °FDrizzle. Overcast.3 mph93%29.80 "HgN/A
1:50 am36 °FPassing clouds.No wind93%29.80 "HgN/A
1:20 am36 °FChilly.No wind100%29.80 "HgN/A
12:50 am36 °FChilly.3 mph100%29.80 "HgN/A
12:20 am34 °FChilly.3 mph100%29.83 "HgN/A
11:50 pm
Fri, Dec 9
34 °FPassing clouds.3 mph100%29.83 "HgN/A
11:20 pm36 °FChilly.3 mph100%29.83 "HgN/A
10:50 pm34 °FChilly.3 mph93%29.83 "HgN/A
10:20 pm37 °FChilly.2 mph93%29.83 "HgN/A
9:50 pm34 °FClear.6 mph93%29.83 "Hg10 mi
9:20 pm37 °FClear.5 mph81%29.83 "Hg10 mi
8:50 pm37 °FClear.6 mph87%29.83 "Hg10 mi
8:20 pm39 °FClear.6 mph81%29.80 "Hg10 mi
7:50 pm39 °FClear.8 mph81%29.83 "Hg10 mi
7:20 pm41 °FClear.10 mph76%29.80 "Hg10 mi
6:50 pm39 °FClear.8 mph75%29.80 "Hg10 mi
6:20 pm39 °FClear.9 mph81%29.80 "Hg10 mi
5:50 pm41 °FClear.12 mph76%29.80 "Hg10 mi
5:20 pm43 °FClear.14 mph76%29.77 "Hg10 mi
4:50 pm43 °FClear.16 mph76%29.80 "Hg10 mi
4:20 pm45 °FClear.15 mph71%29.77 "Hg10 mi
3:50 pm45 °FClear.16 mph66%29.77 "Hg10 mi
3:20 pm45 °FClear.15 mph66%29.77 "Hg10 mi
2:50 pm45 °FSunny.15 mph66%29.77 "Hg10 mi
2:20 pm46 °FSunny.18 mph66%29.74 "Hg10 mi
1:50 pm48 °FSunny.18 mph62%29.74 "Hg10 mi
1:20 pm48 °FSunny.18 mph62%29.74 "Hg10 mi
12:50 pm48 °FSunny.17 mph62%29.71 "Hg10 mi
12:20 pm46 °FSunny.18 mph71%29.71 "Hg10 mi
11:50 am46 °FSunny.17 mph71%29.71 "Hg10 mi
11:20 am46 °FSunny.18 mph76%29.68 "Hg10 mi
10:50 am46 °FSunny.17 mph76%29.68 "Hg10 mi
10:20 am45 °FSunny.17 mph81%29.68 "Hg10 mi
Weather by CustomWeather, © 2016

See weather overviewHow to use our weather pages